Flag for Germany Weather past 2 weeks in Pirmasens, Rhineland-Palatinate, Germany

Now
72 °F

Passing clouds.


Feels Like: 77 °F
Forecast: 55 / 70 °F
Wind: 14 mph from Southwest

Location: Ramstein

Current Time: Jun 2, 2015 at 3:25:48 PM

Latest Report: Jun 2, 2015 at 2:58 PM


Visibility: N/A

Pressure: 30.02 "Hg

Humidity: 38%

Dew point: 45 °F

Location of PirmasensLocation

Historic Weather in Pirmasens — Graph

°F

Pirmasens temperature yesterday

Maximum temperature yesterday: 62 °F (at 12:58 AM)
Minimum temperature yesterday: 46 °F (at 11:58 PM)
Average temperature yesterday: 56 °F

Past Weeks' High & Low Weather Summary

 TemperatureHumidityPressure
High72 °F (May 18, 5:58 PM)100% (May 21, 2:58 AM)30.35 "Hg (May 21, 2:58 AM)
Low32 °F (May 21, 3:58 AM)33% (May 18, 5:58 PM)29.69 "Hg (May 19, 2:58 AM)
Average55 °F70%30.04 "Hg
* Reported May 18 1:58 PM — Jun 2 1:58 PM, Pirmasens, Weather by CustomWeather, © 2015

Note: Actual official high and low records may vary slightly from our data, if they occured in-between our weather recording intervals... More about our weather records

Advertising

Pirmasens weather history for previous 24 hours

 ConditionsComfort  
Time TempWeatherWind HumidityBarometerVisibility
1:58 PM
Tue, Jun 2
72 °FScattered clouds.12 mph44%30.02 "HgN/A
12:58 PM69 °FBroken clouds.12 mph50%30.03 "HgN/A
11:58 AM66 °FBroken clouds.12 mph52%30.03 "HgN/A
10:58 AM64 °FBroken clouds.10 mph54%30.03 "HgN/A
9:58 AM63 °FPassing clouds.14 mph56%30.02 "HgN/A
8:58 AM60 °FSunny.13 mph73%30.01 "HgN/A
7:58 AM57 °FScattered clouds.8 mph77%30.01 "HgN/A
6:58 AM56 °FPassing clouds.9 mph81%30.01 "HgN/A
4:58 AM52 °FPassing clouds.3 mph88%29.99 "HgN/A
3:58 AM50 °FClear.No wind94%30.01 "HgN/A
2:58 AM45 °FPassing clouds.2 mph100%30.01 "HgN/A
1:58 AM45 °FPassing clouds.No wind99%30.04 "HgN/A
12:58 AM45 °FClear.1 mph97%30.05 "HgN/A
11:58 PM
Mon, Jun 1
46 °FClear.No wind93%30.05 "HgN/A
10:58 PM52 °FClear.2 mph77%30.04 "HgN/A
9:58 PM54 °FPassing clouds.6 mph72%30.04 "HgN/A
8:58 PM58 °FPassing clouds.5 mph68%30.04 "HgN/A
7:58 PM58 °FMostly cloudy.6 mph70%30.04 "HgN/A
6:58 PM58 °FMostly cloudy.8 mph70%30.03 "HgN/A
5:58 PM58 °FOvercast.8 mph69%30.05 "HgN/A
4:58 PM61 °FPartly sunny.13 mph63%30.05 "HgN/A
3:58 PM61 °FPartly sunny.9 mph68%30.05 "HgN/A
Weather by CustomWeather, © 2015

See weather overviewHow to use our weather pages